Regional Weather Roundup
Issued by NWS

Home | Current Version | Previous Version | Graphics & Text | Print | Product List | Glossary On
Versions: 1 2 3 4 5 6 7 8 9 10 11 12 13 14 15 16 17 18 19 20 21 22 23 24 25 26 27 28 29 30 31 32 33 34 35 36 37 38 39 40 41 42 43 44 45 46 47 48 49 50
000
ASUS43 KOAX 280702
RWRNE

WEATHER ROUNDUP FOR NEBRASKA
NATIONAL WEATHER SERVICE OMAHA NE
200 AM CDT TUE MAR 28 2017

NOTES: SATELLITE DATA IS BEING USED TO AUGMENT CLOUD COVER ABOVE
       12000 FEET.
       "FAIR" INDICATES FEW OR NO CLOUDS BELOW 12,000 FEET WITH NO
       SIGNIFICANT WEATHER AND/OR OBSTRUCTIONS TO VISIBILITY.

  * THESE STATIONS DO NOT REPORT WEATHER SUCH AS RAIN...SNOW OR FOG.

NEZ001>004-019>022-054>056-280800-
NEBRASKA PANHANDLE

CITY           SKY/WX    TMP DP  RH WIND       PRES   REMARKS
SCOTTSBLUFF    LGT RAIN  49  42  77 SE7       29.89R
ALLIANCE       LGT RAIN  47  41  80 S3        29.90R
CHADRON        LGT RAIN  45  40  82 N9        29.90S
KIMBALL        RAIN      46  46 100 E6        29.88F
SIDNEY         RAIN      46  42  86 SE10      29.90R FOG
$$

NEZ057>060-069>072-079>082-280800-
SOUTHWEST NEBRASKA

CITY           SKY/WX    TMP DP  RH WIND       PRES   REMARKS
NORTH PLATTE   CLOUDY    46  40  79 SE13      29.94S
IMPERIAL       LGT RAIN  46  40  79 SE14      29.92R
LEXINGTON      MOCLDY    41  39  94 SE6       29.98S FOG
MCCOOK         MOCLDY    44  41  89 SE12      29.94S
OGALLALA       CLOUDY    48  40  75 E3        29.91S
$$

NEZ005>010-023>029-035>040-094-280800-
NORTH CENTRAL NEBRASKA

CITY           SKY/WX    TMP DP  RH WIND       PRES   REMARKS
VALENTINE      CLOUDY    48  40  73 SE7       29.96R
AINSWORTH      MOCLDY    43  41  93 SE5       29.97R
BROKEN BOW     CLEAR     40  38  93 SE7       29.97R
O`NEILL        CLOUDY    46  42  85 SE5       30.00R
ORD            CLOUDY    42  39  89 SE6       29.98S FOG
THEDFORD       CLEAR     43  41  91 SE5       29.96R
$$

NEZ041-046>049-061>064-073>077-083>087-280800-
SOUTH CENTRAL NEBRASKA

CITY           SKY/WX    TMP DP  RH WIND       PRES   REMARKS
GRAND ISLAND   CLEAR     36  36 100 SE3       30.02R FOG
AURORA         CLEAR     36  36  99 E5        30.02R FOG     WCI  32
HASTINGS       CLOUDY    41  38  89 S5        30.01S
HEBRON         CLOUDY    39  38  95 E3        30.02S FOG
HOLDREGE       CLOUDY    38  37  96 SE5       29.99S FOG     WCI  35
KEARNEY *      CLEAR     37  34  87 SE5       30.00S WCI  34
YORK           CLEAR     37  37 100 CALM      30.04R FOG
$$

NEZ011>018-030>034-042>045-280800-
NORTHEAST NEBRASKA

CITY           SKY/WX    TMP DP  RH WIND       PRES   REMARKS
NORFOLK        CLOUDY    36  35  96 E7        30.03R WCI  30
ALBION         CLOUDY    41  38  88 SE6       30.02S
FREMONT        CLOUDY    37  37 100 CALM      30.05R
TEKAMAH        PTCLDY    36  34  92 N5        30.05R WCI  32
WAYNE          CLOUDY    37  36  98 CALM      30.05R
$$

NEZ050>053-065>068-078-088>093-280800-
SOUTHEAST NEBRASKA

CITY           SKY/WX    TMP DP  RH WIND       PRES   REMARKS
LINCOLN        CLEAR     34  33  96 N5        30.05S WCI  30
OMAHA EPPLEY   MOCLDY    39  34  82 N3        30.05R
BEATRICE       PTCLDY    37  37  98 CALM      30.03S FOG
FALLS CITY     CLOUDY    47  42  83 N3        30.03S
NEBRASKA CITY  CLOUDY    46  39  78 CALM      30.03F
PLATTSMOUTH    PTCLDY    44  37  75 CALM      30.04S
$$

NEZ044-045-051>053-067-280800-
OMAHA AREA

CITY           SKY/WX    TMP DP  RH WIND       PRES   REMARKS
OMAHA EPPLEY   MOCLDY    39  34  82 N3        30.05R
FREMONT        CLOUDY    37  37 100 CALM      30.05R
MILLARD        CLOUDY    46  42  86 CALM      30.04S
OFFUTT AFB     CLEAR     38  37  94 NE3       30.04R
PLATTSMOUTH    PTCLDY    44  37  75 CALM      30.04S
WAHOO          FOG       34  33  96 NW3       30.04S VSB 1/2
$$




USA.gov is the U.S. government's official web portal to all federal, state and local government web resources and services.